Tracking 27188 objects as of 1-Apr-2023
HD Live streaming from Space Station
objects crossing your sky now

STARLINK-1810

Track STARLINK-1810 now!
10-day predictions
STARLINK-1810 is classified as:


NORAD ID: 46709
Int'l Code: 2020-073AR
Perigee: 553.5 km
Apogee: 555.5 km
Inclination: 53.1 °
Period: 95.6 minutes
Semi major axis: 6925 km
RCS: Unknown
Launch date: October 18, 2020
Source: United States (US)
Launch site: AIR FORCE EASTERN TEST RANGE (AFETR)
Your satellite tracking list
Your tracking list is empty




NASA's NSSDC Master Catalog

Two Line Element Set (TLE):
1 46709U 20073AR  23091.21293499 -.00016360  00000-0 -10837-2 0  9991
2 46709  53.0549  35.7656 0001448 126.3298 233.7825 15.06339333135111
Source of the keplerian elements: AFSPC